OE7DRT-13 Weather Reports


time (UTC)temp
C
wind
direction
speed
KPH
gust
KPH
rain 1hr
cm
rain 24hr
cm
rain mn
cm
humidity
%
barometer
mb
20260502182022 15 0.0 0.0 0.00 0.00 0.00 46 1019.2
20260502181521 15 0.0 0.0 0.00 0.00 0.00 48 1019.1
20260502181019 15 0.0 0.0 0.00 0.00 0.00 49 1019.0
20260502180517 15 242 0.0 1.6 0.00 0.00 0.00 49 1019.1
20260502170517 18 0.0 0.0 0.00 0.00 0.00 36 1018.7
20260502164028 21 345 1.6 6.4 0.00 0.00 0.00 31 1018.7
20260502163547 21 354 4.8 9.7 0.00 0.00 0.00 30 1018.7
20260502163045 22 338 1.6 4.8 0.00 0.00 0.00 30 1018.6
20260502162523 22 354 1.6 3.2 0.00 0.00 0.00 28 1018.9
20260502162041 22 341 1.6 4.8 0.00 0.00 0.00 27 1018.8
20260502161519 22 343 1.6 6.4 0.00 0.00 0.00 27 1018.8
20260502161038 23 337 1.6 4.8 0.00 0.00 0.00 27 1018.8
20260502160516 23 321 1.6 6.4 0.00 0.00 0.00 27 1019.0
20260502151529 23 322 1.6 4.8 0.00 0.00 0.00 28 1019.3
20260502151108 24 320 1.6 6.4 0.00 0.00 0.00 27 1019.4
20260502150526 24 214 0.0 4.8 0.00 0.00 0.00 27 1019.4
20260502130521 22 195 1.6 4.8 0.00 0.00 0.00 28 1020.9
20260502123530 22 326 3.2 16.1 0.00 0.00 0.00 26 1021.2
20260502123048 22 289 3.2 17.7 0.00 0.00 0.00 27 1021.2
20260502122527 22 354 3.2 9.7 0.00 0.00 0.00 26 1021.2
20260502122025 21 24 1.6 6.4 0.00 0.00 0.00 25 1021.4
20260502121523 22 45 1.6 6.4 0.00 0.00 0.00 26 1021.4
20260502121022 21 334 1.6 6.4 0.00 0.00 0.00 26 1021.5
20260502120520 21 178 3.2 9.7 0.00 0.00 0.00 27 1021.5
20260502115516 21 240 1.6 6.4 0.00 0.00 0.00 27 1021.6
20260502115034 21 253 3.2 6.4 0.00 0.00 0.00 26 1021.7
20260502114533 21 214 1.6 4.8 0.00 0.00 0.00 26 1021.7
20260502114051 20 277 1.6 6.4 0.00 0.00 0.00 27 1021.7
20260502113529 20 349 1.6 6.4 0.00 0.00 0.00 27 1021.9
20260502113048 20 326 1.6 4.8 0.00 0.00 0.00 26 1021.9
20260502112546 20 333 3.2 6.4 0.00 0.00 0.00 28 1022.1
20260502112026 20 294 1.6 6.4 0.00 0.00 0.00 28 1022.0
20260502111522 20 81 0.0 3.2 0.00 0.00 0.00 27 1022.0
20260502111020 20 254 3.2 6.4 0.00 0.00 0.00 29 1022.2
20260502110519 20 175 1.6 4.8 0.00 0.00 0.00 32 1022.3
20260502110017 19 141 0.0 4.8 0.00 0.00 0.00 31 1022.4
20260502105535 19 286 1.6 6.4 0.00 0.00 0.00 32 1022.4
20260502105034 18 184 1.6 6.4 0.00 0.00 0.00 33 1022.6
20260502104552 18 157 1.6 4.8 0.00 0.00 0.00 33 1022.8
20260502104030 18 179 3.2 6.4 0.00 0.00 0.00 34 1022.9
20260502103530 18 179 3.2 9.7 0.00 0.00 0.00 33 1022.9
20260502103047 18 171 3.2 6.4 0.00 0.00 0.00 34 1023.0
20260502102525 18 169 3.2 6.4 0.00 0.00 0.00 36 1023.0
20260502102023 18 188 3.2 6.4 0.00 0.00 0.00 36 1023.3
20260502101021 17 192 1.6 6.4 0.00 0.00 0.00 35 1023.3
20260502100518 17 185 4.8 11.3 0.00 0.00 0.00 34 1023.4
20260502091520 14 176 1.6 3.2 0.00 0.00 0.00 36 1024.0
20260502091019 13 178 1.6 4.8 0.00 0.00 0.00 39 1024.0
20260502090517 13 175 1.6 3.2 0.00 0.00 0.00 39 1024.1
20260502071520 6 0.0 0.0 0.00 0.00 0.00 69 1025.1
20260502071019 6 0.0 0.0 0.00 0.00 0.00 69 1025.2
20260502070517 6 0.0 0.0 0.00 0.00 0.00 69 1025.2
20260502070016 6 0.0 0.0 0.00 0.00 0.00 72 1025.3
20260502065534 5 0.0 0.0 0.00 0.00 0.00 74 1025.4
20260502065032 5 0.0 0.0 0.00 0.00 0.00 75 1025.4
20260502064531 5 0.0 0.0 0.00 0.00 0.00 77 1025.4
20260502064029 5 0.0 0.0 0.00 0.00 0.00 78 1025.5
20260502063528 4 0.0 0.0 0.00 0.00 0.00 77 1025.5
20260502063026 4 0.0 0.0 0.00 0.00 0.00 78 1025.6
20260502062524 4 0.0 0.0 0.00 0.00 0.00 77 1025.5
20260502062023 4 0.0 0.0 0.00 0.00 0.00 78 1025.7
20260502061521 3 0.0 0.0 0.00 0.00 0.00 80 1025.7
20260502061020 3 0.0 0.0 0.00 0.00 0.00 81 1025.8
20260502060518 4 0.0 0.0 0.00 0.00 0.00 80 1025.7
20260502060017 3 0.0 0.0 0.00 0.00 0.00 79 1025.7
20260502055536 3 0.0 0.0 0.00 0.00 0.00 81 1025.8
20260502055033 3 0.0 0.0 0.00 0.00 0.00 80 1025.9
20260502054532 3 0.0 0.0 0.00 0.00 0.00 80 1025.8
20260502054030 3 0.0 0.0 0.00 0.00 0.00 81 1025.7
20260502053529 3 0.0 0.0 0.00 0.00 0.00 81 1025.8
20260502053027 3 0.0 0.0 0.00 0.00 0.00 80 1025.8
20260502052525 3 0.0 0.0 0.00 0.00 0.00 79 1025.8
20260502052024 3 0.0 0.0 0.00 0.00 0.00 78 1025.9
20260502051522 3 0.0 0.0 0.00 0.00 0.00 78 1025.9
20260502051020 3 0.0 0.0 0.00 0.00 0.00 78 1025.9
20260502050539 3 0.0 0.0 0.00 0.00 0.00 78 1025.8
20260502050017 3 0.0 0.0 0.00 0.00 0.00 79 1025.8
20260502045516 3 0.0 0.0 0.00 0.00 0.00 78 1025.8
20260502045034 3 0.0 0.0 0.00 0.00 0.00 79 1025.8
20260502044532 3 0.0 0.0 0.00 0.00 0.00 78 1025.8
20260502044031 3 0.0 0.0 0.00 0.00 0.00 79 1025.9
20260502043529 3 0.0 0.0 0.00 0.00 0.00 79 1025.8
20260502043028 3 0.0 0.0 0.00 0.00 0.00 77 1025.6
20260502042546 3 0.0 0.0 0.00 0.00 0.00 77 1025.6
20260502042024 3 0.0 0.0 0.00 0.00 0.00 77 1025.6
20260502041522 3 0.0 0.0 0.00 0.00 0.00 77 1025.7
20260502041021 3 0.0 0.0 0.00 0.00 0.00 78 1025.7
20260502040539 3 0.0 0.0 0.00 0.00 0.00 79 1025.7
20260502040018 3 0.0 0.0 0.00 0.00 0.00 79 1025.7
20260502035516 4 0.0 0.0 0.00 0.00 0.00 76 1025.6
20260502035055 4 0.0 0.0 0.00 0.00 0.00 75 1025.6
20260502034553 4 0.0 0.0 0.00 0.00 0.00 73 1025.5
20260502034031 3 0.0 0.0 0.00 0.00 0.00 76 1025.6
20260502033530 4 0.0 0.0 0.00 0.00 0.00 77 1025.7
20260502033028 4 0.0 0.0 0.00 0.00 0.00 74 1025.5
20260502032527 4 0.0 0.0 0.00 0.00 0.00 75 1025.6
20260502032025 4 0.0 0.0 0.00 0.00 0.00 74 1025.6
20260502031523 3 0.0 0.0 0.00 0.00 0.00 75 1025.5
20260502031042 3 0.0 0.0 0.00 0.00 0.00 78 1025.6
20260502030520 3 0.0 0.0 0.00 0.00 0.00 78 1025.6
20260502030019 3 0.0 0.0 0.00 0.00 0.00 80 1025.6
20260502025517 4 0.0 0.0 0.00 0.00 0.00 77 1025.7
20260502025035 4 0.0 0.0 0.00 0.00 0.00 76 1025.7
20260502024534 4 0.0 0.0 0.00 0.00 0.00 74 1025.8
20260502024032 4 0.0 0.0 0.00 0.00 0.00 74 1025.7
20260502023530 5 0.0 0.0 0.00 0.00 0.00 73 1025.8
20260502023029 5 0.0 0.0 0.00 0.00 0.00 72 1025.8
20260502022547 4 0.0 0.0 0.00 0.00 0.00 74 1025.9
20260502022025 4 0.0 0.0 0.00 0.00 0.00 73 1025.9
20260502021524 5 0.0 0.0 0.00 0.00 0.00 74 1025.9
20260502021022 5 0.0 0.0 0.00 0.00 0.00 72 1025.9
20260502020521 5 0.0 0.0 0.00 0.00 0.00 72 1025.9
20260502020019 5 0.0 0.0 0.00 0.00 0.00 74 1026.0
20260502015517 5 0.0 0.0 0.00 0.00 0.00 73 1025.9
20260502015016 5 0.0 0.0 0.00 0.00 0.00 73 1026.0
20260502014534 5 0.0 0.0 0.00 0.00 0.00 72 1026.0
20260502014032 5 0.0 0.0 0.00 0.00 0.00 73 1025.9
20260502013551 5 0.0 0.0 0.00 0.00 0.00 73 1026.0
20260502013030 5 0.0 0.0 0.00 0.00 0.00 76 1026.1
20260502012528 5 0.0 0.0 0.00 0.00 0.00 76 1026.0
20260502012026 5 0.0 0.0 0.00 0.00 0.00 74 1026.2
20260502011524 5 0.0 0.0 0.00 0.00 0.00 74 1026.2
20260502011023 5 0.0 0.0 0.00 0.00 0.00 72 1026.1
20260502010521 5 0.0 0.0 0.00 0.00 0.00 71 1026.1
20260502010020 5 0.0 0.0 0.00 0.00 0.00 70 1026.1
20260502005518 5 0.0 0.0 0.00 0.00 0.00 70 1026.2
20260502005016 5 0.0 0.0 0.00 0.00 0.00 72 1026.1
20260502004534 5 0.0 0.0 0.00 0.00 0.00 71 1026.2
20260502004032 5 0.0 0.0 0.00 0.00 0.00 71 1026.3
20260502003551 6 0.0 0.0 0.00 0.00 0.00 69 1026.3
20260502003029 6 0.0 0.0 0.00 0.00 0.00 70 1026.2
20260502002025 6 0.0 0.0 0.00 0.00 0.00 71 1026.3
20260502001524 6 0.0 0.0 0.00 0.00 0.00 68 1026.3
20260502001043 6 0.0 0.0 0.00 0.00 0.00 70 1026.4
20260502000520 6 0.0 0.0 0.00 0.00 0.00 69 1026.3
20260502000019 6 0.0 0.0 0.00 0.00 0.00 69 1026.3
20260501235517 6 0.0 0.0 0.00 0.00 0.00 68 1026.3
20260501235035 6 0.0 0.0 0.00 0.00 0.00 68 1026.3
20260501234534 6 0.0 0.0 0.00 0.00 0.00 67 1026.4
20260501234032 6 0.0 0.0 0.00 0.00 0.00 67 1026.3
20260501233530 6 0.0 0.0 0.00 0.00 0.00 67 1026.3
20260501233029 6 0.0 0.0 0.00 0.00 0.00 65 1026.4
20260501232613 6 0.0 0.0 0.00 0.00 0.00 67 1026.3
20260501232026 6 0.0 0.0 0.00 0.00 0.00 68 1026.3
20260501231523 6 0.0 0.0 0.00 0.00 0.00 68 1026.3
20260501231024 6 0.0 0.0 0.00 0.00 0.00 67 1026.4
20260501230521 6 0.0 0.0 0.00 0.00 0.00 67 1026.4
20260501230020 7 0.0 0.0 0.00 0.00 0.00 67 1026.4
20260501225537 7 0.0 0.0 0.00 0.00 0.00 66 1026.3
20260501225036 7 0.0 0.0 0.00 0.00 0.00 64 1026.4
20260501224614 7 0.0 0.0 0.00 0.00 0.00 66 1026.5
20260501224032 7 0.0 0.0 0.00 0.00 0.00 66 1026.4
20260501223531 7 0.0 0.0 0.00 0.00 0.00 64 1026.4
20260501223028 7 0.0 0.0 0.00 0.00 0.00 62 1026.4
20260501222527 7 0.0 0.0 0.00 0.00 0.00 61 1026.4
20260501222025 7 0.0 0.0 0.00 0.00 0.00 64 1026.5
20260501221523 7 0.0 0.0 0.00 0.00 0.00 66 1026.5
20260501221022 7 0.0 0.0 0.00 0.00 0.00 65 1026.4
20260501220520 7 0.0 0.0 0.00 0.00 0.00 66 1026.4
20260501220039 7 0.0 0.0 0.00 0.00 0.00 64 1026.3
20260501215516 7 0.0 0.0 0.00 0.00 0.00 63 1026.3
20260501215035 8 193 0.0 1.6 0.00 0.00 0.00 61 1026.3
20260501214615 8 243 0.0 1.6 0.00 0.00 0.00 61 1026.2
20260501214032 8 0.0 0.0 0.00 0.00 0.00 60 1026.2
20260501213530 8 0.0 0.0 0.00 0.00 0.00 57 1026.1
20260501213028 9 207 0.0 1.6 0.00 0.00 0.00 56 1026.2
20260501212527 9 253 0.0 3.2 0.00 0.00 0.00 54 1026.2
20260501212025 9 213 0.0 1.6 0.00 0.00 0.00 54 1026.2
20260501211523 9 0.0 0.0 0.00 0.00 0.00 56 1026.1
20260501211021 9 0.0 0.0 0.00 0.00 0.00 55 1026.1
20260501210520 9 190 0.0 3.2 0.00 0.00 0.00 55 1025.9
20260501210018 9 218 0.0 3.2 0.00 0.00 0.00 55 1026.0
20260501205516 10 167 0.0 1.6 0.00 0.00 0.00 56 1026.0
20260501205035 10 238 0.0 1.6 0.00 0.00 0.00 52 1025.8
20260501204553 10 219 0.0 3.2 0.00 0.00 0.00 52 1025.9
20260501204031 9 250 0.0 1.6 0.00 0.00 0.00 53 1025.8
20260501203610 9 0.0 0.0 0.00 0.00 0.00 58 1025.8
20260501203028 9 0.0 0.0 0.00 0.00 0.00 59 1025.7
20260501202526 10 300 0.0 3.2 0.00 0.00 0.00 56 1025.7
20260501202024 10 0.0 0.0 0.00 0.00 0.00 56 1025.7
20260501201523 10 0.0 0.0 0.00 0.00 0.00 55 1025.6
20260501201021 10 301 0.0 1.6 0.00 0.00 0.00 54 1025.5
20260501200519 10 222 0.0 1.6 0.00 0.00 0.00 53 1025.3
20260501200017 10 216 0.0 1.6 0.00 0.00 0.00 55 1025.2
20260501195516 10 0.0 0.0 0.00 0.00 0.00 55 1025.3
20260501195034 11 0.0 0.0 0.00 0.00 0.00 52 1025.1
20260501194533 11 153 0.0 1.6 0.00 0.00 0.00 50 1025.0
20260501194031 11 206 1.6 4.8 0.00 0.00 0.00 46 1025.0
20260501193529 12 269 0.0 3.2 0.00 0.00 0.00 46 1024.9
20260501193027 12 202 0.0 4.8 0.00 0.00 0.00 44 1024.9
20260501192526 12 232 0.0 3.2 0.00 0.00 0.00 44 1024.7
20260501192024 12 223 3.2 6.4 0.00 0.00 0.00 42 1024.6
20260501191523 12 237 3.2 6.4 0.00 0.00 0.00 42 1024.6
20260501191020 13 236 3.2 6.4 0.00 0.00 0.00 42 1024.7
20260501190519 13 241 3.2 6.4 0.00 0.00 0.00 41 1024.6
20260501190017 13 224 3.2 6.4 0.00 0.00 0.00 42 1024.5
20260501185535 13 251 3.2 9.7 0.00 0.00 0.00 42 1024.4
20260501185034 13 264 1.6 6.4 0.00 0.00 0.00 42 1024.4
20260501184532 13 267 1.6 4.8 0.00 0.00 0.00 42 1024.2
20260501184030 13 222 3.2 6.4 0.00 0.00 0.00 42 1024.1
20260501183528 13 218 3.2 6.4 0.00 0.00 0.00 42 1024.1
20260501183047 13 226 1.6 3.2 0.00 0.00 0.00 46 1024.0
20260501182525 13 225 0.0 3.2 0.00 0.00 0.00 43 1023.9